Regional Weather Roundup
Issued by NWS Upton, NY

Current Version | Previous Version | Graphics & Text | Print | Product List | Glossary Off
Versions: 1 2 3 4 5 6 7 8 9 10 11 12 13 14 15 16 17 18 19 20 21 22 23 24 25 26 27

000
ASUS41 KOKX 231205
RWROKX

REGIONAL WEATHER ROUNDUP
NATIONAL WEATHER SERVICE NEW YORK NY
800 AM EDT THU OCT 23 2014

NOTE: "FAIR" INDICATES FEW OR NO CLOUDS BELOW 12,000 FEET WITH NO
SIGNIFICANT WEATHER AND/OR OBSTRUCTIONS TO VISIBILITY.

NYZ071-072-176-178-NJZ106-104-231300-
NEW YORK CITY METRO AREA


CITY           SKY/WX    TMP DP  RH WIND       PRES   REMARKS
CENTRAL PARK   LGT RAIN  50  47  89 VRB7      29.73S FOG
LAGUARDIA APRT LGT RAIN  51  46  83 N23G33    29.69S
KENNEDY INTL   LGT RAIN  51  47  86 N22G30    29.68S
NEWARK/LIBERTY LGT RAIN  52  48  86 N20G26    29.71S
BRNX BOT. GARD   N/A     50  46  87 W12       29.71R
TETERBORO      RAIN      51  46  83 N7G21     29.70S
$$

NYZ177-179-078>081-231300-
LONG ISLAND NEW YORK

CITY           SKY/WX    TMP DP  RH WIND       PRES   REMARKS
FARMINGDALE    LGT RAIN  52  48  86 N17       29.66R
ISLIP          LGT RAIN  52  47  83 N18G29    29.62S
SHIRLEY        CLOUDY    52  48  86 N17G26    29.63S
WESTHAMPTON    LGT RAIN  52  48  86 N15G24    29.61S
MONTAUK POINT    N/A     55  51  86 N18G31    29.57S
$$

NYZ052-065-067-231300-
HUDSON VALLEY

CITY           SKY/WX    TMP DP  RH WIND       PRES   REMARKS
WHITE PLAINS   RAIN      48  45  89 N18G26    29.68R FOG
NEWBURGH       NOT AVBL
MONTGOMERY     RAIN      48  46  93 N7        29.75S
POUGHKEEPSIE   LGT RAIN  49  45  86 N8G18     29.75S
ALBANY         RAIN      46  43  89 N8        29.87S FOG
$$

NJZ001-105-106-008-010-013-015-019>022-104-231300-
NEW JERSEY

CITY           SKY/WX    TMP DP  RH WIND       PRES   REMARKS
NEWARK/LIBERTY LGT RAIN  52  48  86 N20G26    29.71S
TETERBORO      RAIN      51  46  83 N7G21     29.70S
CALDWELL       LGT RAIN  51  45  79 N8        29.73R
MORRISTOWN     CLOUDY    52  50  93 N7        29.74R
SOMERVILLE     CLOUDY    53  45  74 N10       29.73R
SUSSEX         LGT RAIN  52  47  83 VRB5      29.75F
ANDOVER          N/A     48  46  93 VRB7      29.76S
TRENTON        CLOUDY    50  46  86 NW9       29.74R
MILLVILLE      LGT RAIN  51  46  83 NW12G23   29.76R
ATLANTIC CITY  CLOUDY    50  49  96 NW16      29.72R
WRIGHTSTOWN    LGT RAIN  50  49  96 NW14      29.71S
TOMS RIVER     CLOUDY    50  48  93 NW7       29.71S
BELMAR         CLOUDY    52  45  76 NW15      29.69S
$$

PAZ047>061-062-071-231300-
EASTERN PENNSYLVANIA

CITY           SKY/WX    TMP DP  RH WIND       PRES   REMARKS
PHILADELPHIA   LGT RAIN  51  46  83 NW16G24   29.77S
ALLENTOWN      CLOUDY    50  42  74 NW10      29.80R
SCRANTON       RAIN      45  41  86 N10       29.87R FOG
$$

CTZ002-004>006-009-010-012-RIZ004-006-007-MAZ004-011-015-231300-
SOUTHERN NEW ENGLAND
 IN CT

CITY           SKY/WX    TMP DP  RH WIND       PRES   REMARKS
BRADLEY INTL   LGT RAIN  51  46  83 N20G28    29.68R
HARTFORD       CLOUDY    50  46  86 N14G23    29.68R
DANBURY        LGT RAIN  48  43  82 N9        29.72R
WTRBRY/OXFORD  CLOUDY    50  43  76 NE16G23   29.68S
BRIDGEPORT     CLOUDY    53  47  79 N21G37    29.65R
MERIDEN        CLOUDY    51  46  83 N13G31    29.67R
NEW HAVEN      CLOUDY    53  46  77 N31G40    29.62S
CHESTER        CLOUDY    50  46  87 N15       29.62F
GROTON         MOCLDY    53  48  83 N21G28    29.57F
WILLIMANTIC    CLOUDY    53  46  77 N20G35    29.62F

 IN RI

CITY           SKY/WX    TMP DP  RH WIND       PRES   REMARKS
PROVIDENCE     MOCLDY    52  49  89 N25G39    29.59R
BLOCK ISLAND   CLOUDY    55  50  82 N17G30    29.56R
WESTERLY       CLOUDY    53  49  86 N15G21    29.58F

 IN MA

CITY           SKY/WX    TMP DP  RH WIND       PRES   REMARKS
BOSTON         LGT RAIN  50  49  96 N28G35    29.67F
WORCESTER      HVY RAIN  46  45  96 NE17G25   29.71R FOG
WESTFIELD      LGT RAIN  50  46  86 N17G33    29.71R
PROVINCETOWN   CLOUDY    55   1  11 N16G24    29.55F
NANTUCKET      CLOUDY    57  55  93 N14       29.53R
$$

ANZ330-335-338-340-345-350-353-355-231300-
COASTAL MARINE OBSERVATIONS


STATION/POSITION TIME  SKY/WX   TEMP    WIND        PRES    VSBY  WAVE
                                AIR SEA DIR/SP/G                  HT/PER
                 (UTC)          (F)     (DEG/KT/KT) (MB)    (MI)  (FT/S)
NY HARB ENTRANCE NOT AVBL
4S FIRE IS       1200               63                N/A           6/ 8
20S FIRE ISLAND  1200            55 64  360/ 29/ 35 1001.7          9/ 5
23SW MTP         1200                                 N/A           8/ 6
HUDSON CANYON    1200            59 67  360/ 27/ 31  999.4         12/ 8
EXECUTION ROCKS  1200            53 62  350/ 16/ 23   N/A
WESTERN LI SOUND 1100            53     350/ 14/ 19   N/A           3/ 6
CENTRAL LI SOUND 1100            53 63   20/ 21/ 25   N/A           4/ 4
EASTERN LI SOUND 1100            55 63   30/ 19/ 25   N/A
ROBBINS REEF     1200            52     340/ 13/ 18 1004.5
$$


>>>>>>>>>>>>>>>>>>>>>>>>>>>> KEY <<<<<<<<<<<<<<<<<<<<<<<<<<<
>                                                          <
>     SKY/WX - SKY CONDITION/PRESENT WEATHER               <
>     TMP    - TEMPERATURE IN FAHRENHEIT                   <
>     DP     - DEWPOINT IN FAHRENHEIT                      <
>     RH     - RELATIVE HUMIDITY IN PERCENT                <
>     WIND   - DIRECTION AND SPEED IN MPH                  <
>     PRES   - MEAN SEA LEVEL PRESSURE IN INCHES OF HG     <
>     WCI    - WIND CHILL INDEX                            <
>     VSB    - VISIBILITY IN MILES                         <
>     HX     - HEAT INDEX                                  <
>     TC     - TEMPERATURE IN CELSIUS                      <
>     VRB    - VARIABLE WIND DIRECTION                     <
>                                                          <
>>>>>>>>>>>>>>>>>>>>>>>>>>>> KEY <<<<<<<<<<<<<<<<<<<<<<<<<<<





USA.gov is the U.S. government's official web portal to all federal, state and local government web resources and services.